Radiation Dose at Monitoring Post of Fukushima Daini Nuclear Power Station
Date,Time,MP-1(microSv/h),MP-2(microSv/h),MP-3(microSv/h),MP-4(microSv/h),MP-5(microSv/h),MP-6(microSv/h),MP-7(microSv/h),Wind Direction,Wind Velocity(m/s),Rain
2018/01/27,00:00,0.308,0.190,0.314,0.304,0.276,0.161,0.099,northwest,4.5,No
2018/01/27,00:10,0.308,0.189,0.315,0.303,0.277,0.161,0.098,northwest,4.0,No
2018/01/27,00:20,0.306,0.190,0.315,0.305,0.277,0.161,0.098,north-northwest,5.7,No
2018/01/27,00:30,0.307,0.190,0.314,0.304,0.276,0.161,0.098,north-northwest,4.7,No
2018/01/27,00:40,0.308,0.189,0.316,0.305,0.276,0.160,0.098,northwest,5.2,No
2018/01/27,00:50,0.307,0.190,0.315,0.305,0.276,0.160,0.098,northwest,5.4,No
2018/01/27,01:00,0.307,0.189,0.316,0.305,0.277,0.162,0.098,northwest,4.9,No
2018/01/27,01:10,0.307,0.191,0.315,0.305,0.276,0.160,0.099,northwest,3.0,No
2018/01/27,01:20,0.307,0.189,0.315,0.304,0.276,0.160,0.099,northwest,3.2,No
2018/01/27,01:30,0.307,0.189,0.314,0.305,0.276,0.160,0.099,northwest,4.7,No
2018/01/27,01:40,0.309,0.189,0.316,0.304,0.276,0.160,0.098,northwest,4.2,No
2018/01/27,01:50,0.308,0.189,0.315,0.305,0.277,0.161,0.099,northwest,5.2,No
2018/01/27,02:00,0.308,0.189,0.315,0.304,0.275,0.160,0.097,north-northwest,5.7,No
2018/01/27,02:10,0.308,0.189,0.315,0.305,0.276,0.160,0.098,northwest,5.1,No
2018/01/27,02:20,0.308,0.189,0.315,0.305,0.276,0.160,0.099,west-northwest,7.3,No
2018/01/27,02:30,0.307,0.189,0.314,0.305,0.275,0.162,0.099,northwest,8.4,No
2018/01/27,02:40,0.307,0.190,0.315,0.304,0.276,0.161,0.098,west-northwest,7.7,No
2018/01/27,02:50,0.308,0.189,0.315,0.304,0.277,0.161,0.098,west-northwest,6.5,No
2018/01/27,03:00,0.307,0.189,0.315,0.304,0.276,0.160,0.098,northwest,3.3,No
2018/01/27,03:10,0.307,0.189,0.316,0.305,0.276,0.161,0.098,west-northwest,4.5,No
2018/01/27,03:20,0.308,0.189,0.315,0.305,0.276,0.161,0.099,northwest,5.6,No
2018/01/27,03:30,0.308,0.190,0.314,0.303,0.276,0.160,0.098,northwest,4.2,No
2018/01/27,03:40,0.307,0.190,0.316,0.304,0.275,0.161,0.099,north-northwest,3.6,No
2018/01/27,03:50,0.306,0.190,0.315,0.304,0.276,0.161,0.098,northwest,2.4,No
2018/01/27,04:00,0.307,0.189,0.315,0.304,0.276,0.160,0.098,northwest,1.9,No
2018/01/27,04:10,0.308,0.190,0.314,0.305,0.277,0.159,0.098,west-northwest,1.2,No
2018/01/27,04:20,0.308,0.190,0.315,0.304,0.276,0.161,0.099,west-northwest,3.2,No
2018/01/27,04:30,0.307,0.189,0.314,0.304,0.276,0.161,0.098,west-northwest,5.0,No
2018/01/27,04:40,0.307,0.189,0.316,0.304,0.276,0.161,0.099,northwest,5.9,No
2018/01/27,04:50,0.308,0.190,0.314,0.303,0.276,0.160,0.099,west-northwest,7.3,No
2018/01/27,05:00,0.307,0.190,0.315,0.305,0.276,0.161,0.098,west-northwest,5.8,No
2018/01/27,05:10,0.308,0.189,0.315,0.305,0.276,0.161,0.098,west,4.9,No
2018/01/27,05:20,0.307,0.190,0.315,0.304,0.277,0.161,0.098,west,3.8,No
2018/01/27,05:30,0.307,0.189,0.316,0.305,0.277,0.161,0.098,west,4.0,No
2018/01/27,05:40,0.307,0.189,0.314,0.304,0.275,0.161,0.098,west-northwest,3.6,No
2018/01/27,05:50,0.308,0.188,0.314,0.304,0.277,0.161,0.098,west-northwest,2.7,No
2018/01/27,06:00,0.307,0.189,0.315,0.304,0.275,0.160,0.098,northwest,1.5,No
2018/01/27,06:10,0.307,0.190,0.314,0.303,0.276,0.161,0.097,northwest,1.7,No
2018/01/27,06:20,0.309,0.189,0.313,0.304,0.278,0.161,0.097,northwest,1.1,No
2018/01/27,06:30,0.307,0.189,0.314,0.305,0.275,0.161,0.099,north-northwest,1.4,No
2018/01/27,06:40,0.306,0.189,0.313,0.305,0.276,0.160,0.097,north,1.0,No
2018/01/27,06:50,0.307,0.189,0.314,0.305,0.275,0.160,0.098,north,1.0,No
2018/01/27,07:00,0.308,0.190,0.315,0.303,0.275,0.160,0.098,-,CALM,No
2018/01/27,07:10,0.307,0.190,0.315,0.304,0.276,0.160,0.098,-,CALM,No
2018/01/27,07:20,0.308,0.190,0.315,0.304,0.276,0.161,0.099,south,0.6,No
2018/01/27,07:30,0.307,0.189,0.313,0.304,0.276,0.160,0.097,south-southwest,1.5,No
2018/01/27,07:40,0.307,0.190,0.315,0.303,0.277,0.161,0.098,southwest,0.9,No
2018/01/27,07:50,0.307,0.190,0.314,0.304,0.275,0.160,0.099,southwest,1.2,No
2018/01/27,08:00,0.307,0.190,0.314,0.303,0.276,0.161,0.098,southwest,0.6,No
2018/01/27,08:10,0.307,0.189,0.313,0.304,0.276,0.161,0.098,southwest,0.9,No
2018/01/27,08:20,0.307,0.190,0.316,0.304,0.277,0.160,0.098,north-northeast,0.7,No
2018/01/27,08:30,0.308,0.189,0.314,0.304,0.276,0.161,0.098,north-northeast,0.7,No
2018/01/27,08:40,0.307,0.189,0.315,0.304,0.274,0.161,0.098,-,CALM,No
2018/01/27,08:50,0.306,0.189,0.315,0.303,0.276,0.162,0.099,northwest,1.7,No
2018/01/27,09:00,0.308,0.189,0.314,0.303,0.275,0.161,0.098,west-northwest,3.6,No
2018/01/27,09:10,0.307,0.189,0.314,0.302,0.276,0.160,0.098,northwest,1.7,No
2018/01/27,09:20,0.306,0.190,0.314,0.304,0.276,0.160,0.098,northwest,2.1,No
2018/01/27,09:30,0.306,0.189,0.315,0.302,0.275,0.159,0.098,north,1.9,No
2018/01/27,09:40,0.307,0.188,0.315,0.302,0.276,0.161,0.099,north-northwest,5.0,No
2018/01/27,09:50,0.308,0.189,0.314,0.303,0.275,0.160,0.097,north-northwest,5.6,No
2018/01/27,10:00,0.305,0.189,0.315,0.302,0.276,0.160,0.098,northwest,6.5,No
2018/01/27,10:10,0.306,0.189,0.314,0.303,0.275,0.160,0.097,west-northwest,8.4,No
2018/01/27,10:20,0.306,0.189,0.316,0.303,0.276,0.160,0.098,west-northwest,7.7,No
2018/01/27,10:30,0.306,0.189,0.314,0.305,0.279,0.161,0.098,west-northwest,8.1,No
2018/01/27,10:40,0.306,0.189,0.315,0.302,0.275,0.160,0.099,northwest,5.8,No
2018/01/27,10:50,0.305,0.190,0.315,0.304,0.276,0.161,0.099,west-northwest,5.0,No
2018/01/27,11:00,0.305,0.190,0.315,0.304,0.278,0.159,0.098,west-northwest,6.2,No
2018/01/27,11:10,0.306,0.190,0.315,0.305,0.277,0.159,0.098,northwest,6.4,No
2018/01/27,11:20,0.306,0.189,0.315,0.305,0.275,0.161,0.098,northwest,7.0,No
2018/01/27,11:30,0.307,0.189,0.314,0.304,0.277,0.160,0.098,northwest,7.3,No
2018/01/27,11:40,0.306,0.189,0.315,0.303,0.276,0.160,0.098,west-northwest,7.3,No
2018/01/27,11:50,0.306,0.189,0.315,0.303,0.277,0.160,0.098,west-northwest,7.1,No
2018/01/27,12:00,0.306,0.191,0.316,0.305,0.279,0.160,0.098,northwest,6.1,No
2018/01/27,12:10,0.306,0.189,0.314,0.304,0.276,0.160,0.097,northwest,4.3,No
2018/01/27,12:20,0.306,0.189,0.314,0.305,0.276,0.161,0.098,west-northwest,6.5,No
2018/01/27,12:30,0.307,0.189,0.315,0.305,0.279,0.160,0.098,west,7.3,No
2018/01/27,12:40,0.307,0.189,0.315,0.305,0.277,0.161,0.098,west,7.8,No
2018/01/27,12:50,0.307,0.189,0.313,0.304,0.277,0.161,0.098,northwest,8.7,No
2018/01/27,13:00,0.308,0.190,0.315,0.306,0.279,0.160,0.098,northwest,9.7,No
2018/01/27,13:10,0.306,0.189,0.314,0.304,0.278,0.160,0.098,west-northwest,11.5,No
2018/01/27,13:20,0.309,0.190,0.314,0.304,0.279,0.161,0.098,west-northwest,7.1,No
2018/01/27,13:30,0.309,0.190,0.314,0.306,0.280,0.160,0.099,west-northwest,8.1,No
2018/01/27,13:40,0.309,0.190,0.315,0.304,0.280,0.160,0.098,west-northwest,7.3,No
2018/01/27,13:50,0.308,0.191,0.314,0.304,0.279,0.161,0.099,west-northwest,8.7,No
2018/01/27,14:00,0.308,0.190,0.314,0.305,0.278,0.161,0.099,northwest,9.5,No
2018/01/27,14:10,0.308,0.191,0.315,0.305,0.281,0.162,0.098,northwest,9.5,No
2018/01/27,14:20,0.309,0.191,0.316,0.306,0.278,0.162,0.098,west-northwest,8.4,No
2018/01/27,14:30,0.310,0.191,0.317,0.306,0.278,0.160,0.098,west-northwest,6.6,No
2018/01/27,14:40,0.308,0.191,0.316,0.307,0.279,0.161,0.098,west-northwest,7.3,No
2018/01/27,14:50,0.309,0.191,0.316,0.307,0.280,0.161,0.100,west-northwest,8.8,No
2018/01/27,15:00,0.310,0.191,0.316,0.307,0.281,0.162,0.099,west,4.6,No
2018/01/27,15:10,0.309,0.191,0.316,0.306,0.281,0.161,0.098,northwest,1.5,No
2018/01/27,15:20,0.310,0.191,0.317,0.307,0.281,0.161,0.099,west,5.2,No
2018/01/27,15:30,0.309,0.191,0.316,0.307,0.281,0.162,0.099,west-northwest,6.1,No
2018/01/27,15:40,0.310,0.192,0.315,0.307,0.279,0.162,0.099,west,7.5,No
2018/01/27,15:50,0.309,0.191,0.317,0.307,0.281,0.161,0.098,west-northwest,6.7,No
2018/01/27,16:00,0.310,0.191,0.317,0.306,0.279,0.161,0.098,west,7.3,No
2018/01/27,16:10,0.309,0.192,0.318,0.307,0.279,0.161,0.099,west-northwest,7.5,No
2018/01/27,16:20,0.309,0.192,0.316,0.307,0.279,0.161,0.099,west,5.8,No
2018/01/27,16:30,0.308,0.192,0.316,0.307,0.279,0.161,0.099,west,5.3,No
2018/01/27,16:40,0.309,0.192,0.317,0.306,0.279,0.162,0.099,west-northwest,6.0,No
2018/01/27,16:50,0.309,0.192,0.316,0.307,0.279,0.162,0.098,north-northwest,2.2,No
2018/01/27,17:00,0.310,0.191,0.317,0.307,0.279,0.161,0.099,northwest,5.8,No
2018/01/27,17:10,0.310,0.191,0.316,0.306,0.279,0.162,0.098,northwest,3.1,No
2018/01/27,17:20,0.310,0.192,0.316,0.307,0.280,0.162,0.099,northwest,3.1,No
2018/01/27,17:30,0.310,0.191,0.317,0.307,0.279,0.161,0.098,northwest,2.8,No
2018/01/27,17:40,0.310,0.192,0.316,0.306,0.280,0.162,0.098,west-northwest,2.4,No
2018/01/27,17:50,0.311,0.192,0.316,0.308,0.279,0.162,0.099,northwest,4.8,No
2018/01/27,18:00,0.311,0.192,0.316,0.307,0.279,0.162,0.099,northwest,4.7,No
2018/01/27,18:10,0.310,0.191,0.316,0.307,0.278,0.162,0.098,north-northwest,5.5,No
2018/01/27,18:20,0.308,0.191,0.316,0.308,0.279,0.161,0.099,northwest,5.1,No
2018/01/27,18:30,0.309,0.192,0.316,0.307,0.279,0.162,0.099,northwest,5.8,No
2018/01/27,18:40,0.310,0.191,0.315,0.307,0.277,0.163,0.099,northwest,7.4,No
2018/01/27,18:50,0.309,0.192,0.316,0.308,0.279,0.162,0.099,northwest,6.2,No
2018/01/27,19:00,0.309,0.191,0.317,0.308,0.279,0.162,0.098,northwest,6.5,No
2018/01/27,19:10,0.309,0.190,0.316,0.307,0.279,0.161,0.098,northwest,6.1,No
2018/01/27,19:20,0.310,0.191,0.317,0.305,0.279,0.161,0.099,northwest,7.0,No
2018/01/27,19:30,0.310,0.191,0.316,0.307,0.280,0.162,0.099,west-northwest,6.9,No
2018/01/27,19:40,0.310,0.192,0.317,0.306,0.278,0.161,0.099,northwest,7.9,No
2018/01/27,19:50,0.309,0.192,0.316,0.307,0.279,0.162,0.098,northwest,8.2,No
2018/01/27,20:00,0.310,0.191,0.316,0.307,0.280,0.163,0.098,northwest,6.1,No
2018/01/27,20:10,0.310,0.191,0.317,0.306,0.278,0.162,0.098,northwest,9.5,No
2018/01/27,20:20,0.310,0.192,0.318,0.308,0.279,0.162,0.098,northwest,8.7,No
2018/01/27,20:30,0.309,0.191,0.317,0.306,0.278,0.162,0.098,northwest,6.7,No
2018/01/27,20:40,0.310,0.191,0.316,0.306,0.280,0.162,0.098,northwest,6.4,No
2018/01/27,20:50,0.310,0.192,0.317,0.307,0.280,0.162,0.099,northwest,4.3,No
2018/01/27,21:00,0.309,0.193,0.317,0.308,0.279,0.162,0.098,northwest,3.5,No
2018/01/27,21:10,0.310,0.192,0.318,0.306,0.280,0.162,0.098,west-northwest,1.5,No
2018/01/27,21:20,0.310,0.192,0.317,0.308,0.280,0.162,0.099,west-northwest,2.0,No
2018/01/27,21:30,0.310,0.191,0.316,0.308,0.279,0.162,0.098,north,2.9,No
2018/01/27,21:40,0.311,0.191,0.318,0.306,0.281,0.162,0.099,north-northeast,4.0,No
2018/01/27,21:50,0.311,0.192,0.316,0.306,0.280,0.162,0.099,north,3.3,No
2018/01/27,22:00,0.311,0.192,0.317,0.306,0.279,0.162,0.099,north,3.0,No
2018/01/27,22:10,0.312,0.191,0.316,0.307,0.278,0.161,0.099,west-northwest,1.4,No
2018/01/27,22:20,0.310,0.193,0.317,0.308,0.279,0.161,0.099,north-northwest,3.6,No
2018/01/27,22:30,0.310,0.192,0.317,0.307,0.279,0.163,0.098,northwest,4.9,No
2018/01/27,22:40,0.309,0.192,0.318,0.307,0.278,0.162,0.099,northwest,4.5,No
2018/01/27,22:50,0.310,0.192,0.317,0.306,0.279,0.162,0.099,northwest,4.7,No
2018/01/27,23:00,0.310,0.191,0.317,0.306,0.278,0.162,0.099,northwest,3.6,No
2018/01/27,23:10,0.310,0.192,0.316,0.306,0.277,0.162,0.098,northwest,3.9,No
2018/01/27,23:20,0.310,0.190,0.317,0.306,0.277,0.162,0.098,west-northwest,3.5,No
2018/01/27,23:30,0.310,0.191,0.316,0.306,0.280,0.161,0.098,northwest,4.6,No
2018/01/27,23:40,0.310,0.191,0.316,0.307,0.277,0.162,0.098,north-northwest,5.1,No
2018/01/27,23:50,0.311,0.192,0.318,0.307,0.280,0.162,0.098,north,3.1,No
